CST,Max TemperatureF,Mean TemperatureF,Min TemperatureF,Max Dew PointF,MeanDew PointF,Min DewpointF,Max Humidity, Mean Humidity, Min Humidity, Max Sea Level PressureIn, Mean Sea Level PressureIn, Min Sea Level PressureIn, Max VisibilityMiles, Mean VisibilityMiles, Min VisibilityMiles, Max Wind SpeedMPH, Mean Wind SpeedMPH, Max Gust SpeedMPH,PrecipitationIn, CloudCover, Events, WindDirDegrees
2013-11-1,74,60,45,53,48,41,100,66,31,29.96,29.89,29.85,10,10,10,10,2,13,0.00,0,,234
2013-11-2,65,53,40,48,42,37,96,67,37,30.24,30.13,29.97,10,10,10,18,6,22,0.00,1,,314
2013-11-3,63,50,36,44,40,35,100,71,42,30.29,30.22,30.15,10,10,10,14,4,17,0.00,0,,99
2013-11-4,68,56,44,56,50,43,100,82,63,30.22,30.16,30.13,10,10,10,14,4,18,0.00,2,,113
2013-11-5,72,65,57,62,58,53,87,77,66,30.18,30.11,30.06,10,10,10,20,8,26,0.00,7,,119
2013-11-6,70,58,46,67,59,43,100,91,81,30.31,30.13,30.04,10,8,1,18,9,23,0.17,7,Rain,269
2013-11-7,60,49,37,44,40,36,100,71,42,30.46,30.39,30.31,10,10,9,13,5,17,0.00,0,,358
2013-11-8,63,50,36,48,42,35,100,70,39,30.39,30.31,30.20,10,10,10,10,2,14,0.00,0,,134
2013-11-9,56,52,48,52,49,46,100,89,77,30.28,30.25,30.20,10,10,8,7,1,9,0.08,6,Rain,106
2013-11-10,69,57,44,53,48,44,100,72,44,30.36,30.30,30.27,10,8,1,9,2,13,0.00,2,,5
2013-11-11,71,57,43,54,48,43,100,74,47,30.30,30.25,30.18,10,8,5,7,0,10,0.00,0,,355
2013-11-12,53,42,31,52,37,22,100,73,46,30.66,30.49,30.25,10,10,9,23,10,39,0.00,3,,22
2013-11-13,50,38,25,31,24,19,92,62,32,30.71,30.59,30.45,10,10,10,13,3,17,0.00,0,,17
2013-11-14,58,41,24,37,28,22,92,60,28,30.43,30.29,30.12,10,10,10,12,2,15,0.00,0,,142
2013-11-15,63,50,37,56,50,37,100,86,72,30.12,30.05,29.96,10,9,4,12,4,14,0.06,6,Rain,132
2013-11-16,71,63,54,67,62,54,100,92,84,29.99,29.92,29.83,10,4,0,18,7,26,T,7,Fog-Rain,147
2013-11-17,83,74,64,72,68,51,100,82,63,30.00,29.84,29.76,10,7,0,18,9,26,0.07,5,Fog-Rain,202
2013-11-18,68,57,46,46,41,35,93,63,32,30.22,30.15,30.02,10,10,10,16,6,23,0.00,0,,25
2013-11-19,61,50,39,39,34,27,83,55,27,30.28,30.20,30.14,10,10,10,16,6,24,0.00,0,,59
2013-11-20,66,50,34,45,35,31,92,60,28,30.16,30.09,30.02,10,10,10,10,3,14,0.00,1,,116
2013-11-21,67,59,50,65,58,39,100,80,59,30.13,30.10,30.06,10,6,1,16,7,21,0.37,8,Rain,142
2013-11-22,65,55,44,65,57,43,100,97,93,30.36,30.24,30.09,10,4,1,18,8,24,3.15,8,Rain-Thunderstorm,33
2013-11-23,46,41,35,43,38,26,100,85,70,30.53,30.43,30.34,10,7,2,16,9,22,0.48,6,Rain,12
2013-11-24,39,34,28,27,22,19,78,63,48,30.62,30.51,30.41,10,10,10,20,9,29,T,2,,31
2013-11-25,34,33,31,33,30,26,100,88,75,30.39,30.26,30.12,10,8,3,14,7,18,0.57,8,Rain,26
2013-11-26,41,37,33,38,35,31,100,87,73,30.23,30.08,30.01,10,8,2,17,8,22,0.06,6,Rain,341
2013-11-27,43,34,25,30,24,20,92,66,39,30.43,30.36,30.25,10,10,10,15,4,24,0.00,0,,341
2013-11-28,50,37,23,33,26,21,92,66,39,30.51,30.46,30.41,10,10,10,8,2,13,0.00,0,,206
2013-11-29,57,41,24,36,29,22,100,66,32,30.57,30.49,30.42,10,10,10,6,0,9,0.00,0,,-1
2013-11-30,64,45,26,45,36,24,100,70,40,30.43,30.33,30.22,10,10,10,12,2,16,0.00,1,,171